Temp
20 20 19 19 18 18 16 16 15 15 15 15 15 15 16 16 15 16 16 16 15 15 15 15 15 15 15 15 15 15 15 15 15 15 15 15 16 16 15 15 16 16 16
20 19 19 19 18 17 15 15 15 15 15 15 15 15 15 15 15 15 15 15 15 15 15 15 15 15 15 15 15 15 15 15 15 15 15 15 15 15 15 15 16 15 15
19 19 19 19 18 17 15 15 15 15 15 15 15 14 14 15 15 14 14 15 15 15 15 15 15 15 15 15 15 15 15 15 15 15 15 15 15 15 15 15 15 15 15
19 19 19 19 18 17 15 15 15 15 15 15 14 14 14 15 15 16 14 14 15 15 15 15 15 15 15 15 15 15 15 14 15 15 15 14 15 15 15 15 15 15 15
20 19 19 18 17 17 16 14 14 15 14 14 14 14 14 14 15 16 15 14 14 14 15 14 14 14 14 14 14 14 14 14 14 15 15 15 15 15 15 15 15 15 15
19 19 18 18 17 16 16 15 14 14 14 14 14 14 14 14 14 14 14 14 14 14 14 14 14 13 13 14 14 14 14 14 14 14 14 14 14 15 15 15 14 14 15
19 18 18 17 16 16 15 15 14 14 14 14 14 14 14 13 13 14 14 13 14 14 14 14 14 13 13 13 14 14 14 14 14 14 14 14 14 14 14 14 14 14 14
18 17 17 16 16 15 14 14 14 14 14 14 14 13 13 14 13 13 13 13 13 13 14 14 13 13 13 12 13 13 14 14 14 14 13 14 14 14 14 14 14 14 14
17 17 16 15 14 12 12 14 14 14 13 13 13 13 13 13 13 13 13 12 13 13 14 14 13 13 12 12 12 13 13 13 13 13 13 13 13 14 13 13 13 13 13
17 16 15 15 15 12 14 14 14 14 13 13 13 13 13 13 12 13 13 12 13 13 13 14 12 12 13 12 12 13 13 13 13 13 13 13 12 12 12 12 12 12 12
16 15 15 14 14 13 14 13 13 13 12 12 12 13 12 12 13 14 12 13 13 12 12 12 12 12 12 12 12 12 12 12 12 12 12 12 12 12 12 11 11 11 11
15 15 14 14 13 13 11 12 12 12 12 12 11 12 12 12 13 14 12 13 13 12 12 12 12 11 11 11 11 12 12 12 11 11 11 11 10 10 10 11 11 11 11
15 14 14 13 12 13 12 11 11 11 12 11 11 11 11 12 12 14 13 12 12 12 12 12 11 11 11 11 11 12 12 12 11 10 10 10 10 9 9 9 11 13 13
14 14 13 12 12 11 11 11 10 11 11 11 11 11 12 11 12 12 12 12 11 11 11 11 10 11 11 11 11 11 11 11 11 9 9 9 8 8 8 8 10 12 12
14 14 13 12 11 10 11 11 10 10 10 10 11 10 10 10 10 10 10 10 10 10 10 10 10 10 11 11 11 11 11 10 10 9 8 8 7 7 6 6 8 9 9
14 13 13 12 11 11 10 10 10 10 10 10 10 9 9 10 10 9 9 9 9 9 9 10 10 10 10 10 10 10 10 9 9 9 8 7 6 6 6 6 6 7 7
16 13 13 12 10 11 10 10 10 10 10 10 10 9 9 9 8 8 8 8 8 9 9 9 10 9 10 9 10 9 9 8 8 8 8 8 8 8 8 7 6 5 6
14 13 13 12 11 10 10 10 10 10 10 10 10 10 9 9 8 8 8 10 9 9 8 9 9 9 9 9 9 8 7 7 7 8 7 7 7 8 8 8 7 6 6
14 12 12 12 11 10 10 10 10 10 10 10 10 10 10 9 9 9 9 9 9 10 9 9 10 9 9 9 8 6 6 6 6 5 6 6 7 7 7 7 7 7 7
12 11 11 11 10 10 9 10 10 9 10 9 10 10 10 9 9 9 9 10 9 10 9 9 9 9 9 9 7 5 5 5 5 5 5 5 6 7 7 7 7 6 6
10 10 10 10 10 10 9 9 9 10 9 9 9 9 9 9 9 10 10 10 10 10 10 9 9 9 7 8 9 5 5 5 4 5 5 6 6 6 7 7 6 6 6
8 9 9 10 10 9 9 9 10 9 9 9 9 9 9 9 9 9 9 9 9 9 9 9 9 8 8 7 7 6 4 4 5 6 6 6 6 6 6 6 6 6 6
7 7 8 9 10 9 9 9 9 9 9 8 8 8 9 8 9 9 9 9 9 9 9 9 8 9 9 6 6 7 7 7 6 5 6 7 6 6 5 5 6 5 5
6 7 7 8 8 9 8 9 9 9 9 9 9 8 8 8 8 8 8 9 9 8 8 8 8 9 9 9 7 8 8 8 7 5 5 4 5 4 5 4 4 4 4
4 6 7 7 8 8 8 8 9 8 9 8 8 7 7 7 7 7 7 7 7 7 7 8 8 7 6 7 8 7 7 7 7 8 6 5 4 4 4 4 4 4 4
3 5 7 7 7 8 8 8 8 8 9 8 8 7 6 6 7 6 7 6 6 6 7 7 6 6 6 6 6 6 6 6 6 7 7 6 5 5 5 4 4 4 4
Height
1473 1475 1477 1479 1481 1482 1485 1487 1490 1492 1493 1494 1496 1498 1501 1502 1504 1505 1508 1509 1510 1512 1513 1515 1516 1518 1521 1523 1525 1527 1529 1531 1531 1534 1533 1535 1537 1538 1540 1542 1543 1546 1548
1472 1474 1476 1478 1480 1482 1485 1487 1489 1491 1492 1494 1496 1497 1501 1501 1503 1504 1507 1508 1509 1512 1512 1513 1515 1518 1520 1523 1525 1527 1530 1532 1533 1535 1536 1538 1539 1540 1542 1544 1547 1548 1550
1471 1472 1475 1477 1479 1481 1484 1486 1488 1490 1491 1493 1496 1496 1498 1500 1500 1503 1506 1510 1509 1510 1511 1512 1514 1517 1519 1522 1525 1528 1531 1533 1535 1537 1538 1540 1542 1543 1546 1547 1548 1550 1551
1470 1472 1474 1476 1477 1479 1482 1484 1486 1488 1490 1491 1493 1495 1496 1498 1500 1500 1504 1507 1511 1510 1511 1512 1514 1516 1519 1521 1525 1529 1532 1535 1537 1539 1540 1542 1544 1546 1548 1549 1551 1553 1554
1468 1470 1472 1474 1476 1478 1480 1482 1484 1486 1488 1489 1491 1493 1494 1496 1497 1499 1499 1506 1507 1509 1512 1512 1514 1516 1520 1523 1526 1530 1534 1537 1539 1540 1542 1544 1546 1548 1549 1551 1553 1555 1557
1468 1469 1470 1472 1473 1475 1477 1479 1482 1484 1486 1488 1489 1492 1492 1494 1496 1498 1502 1503 1505 1506 1508 1510 1502 1509 1519 1523 1525 1532 1534 1538 1540 1542 1544 1546 1548 1550 1551 1553 1555 1557 1559
1466 1467 1468 1471 1471 1472 1474 1477 1480 1482 1484 1486 1488 1490 1490 1493 1494 1496 1501 1501 1504 1496 1507 1509 1511 1515 1519 1523 1526 1534 1538 1539 1540 1543 1545 1548 1550 1552 1553 1554 1557 1559 1560
1464 1465 1466 1468 1469 1470 1472 1473 1476 1479 1482 1484 1485 1487 1489 1490 1492 1494 1497 1500 1503 1491 1507 1510 1514 1518 1520 1523 1530 1536 1538 1540 1541 1544 1547 1550 1552 1554 1555 1556 1559 1560 1561
1461 1463 1463 1465 1467 1468 1470 1471 1473 1477 1480 1482 1482 1485 1487 1487 1488 1492 1495 1496 1498 1504 1507 1511 1512 1517 1523 1527 1532 1535 1539 1541 1543 1547 1549 1552 1554 1555 1556 1558 1561 1561 1562
1458 1460 1462 1463 1464 1467 1468 1470 1472 1474 1477 1477 1480 1482 1484 1485 1487 1491 1485 1484 1495 1501 1504 1509 1514 1517 1521 1526 1531 1535 1537 1542 1545 1549 1551 1553 1555 1556 1558 1560 1561 1562 1564
1455 1457 1459 1460 1462 1466 1466 1468 1470 1472 1474 1477 1479 1480 1482 1484 1486 1488 1473 1473 1491 1501 1506 1510 1515 1520 1522 1526 1531 1536 1540 1543 1546 1550 1552 1554 1557 1558 1559 1560 1562 1564 1565
1451 1453 1456 1458 1461 1462 1464 1466 1468 1471 1474 1476 1477 1479 1481 1484 1485 1480 1484 1489 1498 1501 1508 1512 1517 1521 1525 1527 1532 1537 1540 1543 1546 1550 1553 1555 1557 1558 1559 1560 1562 1563 1564
1448 1451 1453 1456 1459 1460 1462 1465 1468 1472 1474 1474 1476 1479 1480 1483 1486 1485 1489 1497 1503 1507 1509 1514 1518 1523 1527 1530 1534 1538 1541 1544 1547 1551 1554 1556 1558 1559 1560 1560 1560 1562 1564
1446 1449 1452 1454 1456 1458 1461 1464 1467 1471 1474 1475 1476 1480 1482 1483 1485 1489 1494 1498 1503 1510 1512 1516 1520 1523 1527 1532 1536 1539 1542 1545 1548 1551 1555 1556 1558 1560 1560 1562 1562 1562 1563
1441 1445 1449 1452 1454 1457 1459 1462 1465 1469 1473 1475 1477 1479 1482 1483 1485 1489 1492 1497 1503 1509 1512 1517 1522 1524 1527 1532 1536 1539 1543 1546 1549 1552 1555 1556 1559 1560 1561 1562 1562 1563 1564
1437 1439 1444 1448 1451 1456 1458 1461 1464 1467 1471 1474 1477 1479 1481 1484 1486 1488 1492 1496 1502 1506 1512 1518 1522 1525 1528 1533 1536 1539 1543 1546 1549 1552 1555 1557 1559 1559 1562 1564 1564 1564 1565
1431 1435 1439 1444 1448 1452 1456 1459 1463 1466 1469 1472 1476 1478 1482 1484 1485 1488 1493 1498 1501 1507 1513 1517 1521 1525 1529 1532 1535 1539 1543 1547 1549 1552 1556 1557 1558 1560 1562 1564 1565 1566 1566
1427 1430 1433 1439 1444 1449 1453 1457 1461 1465 1468 1471 1475 1478 1481 1485 1488 1491 1495 1499 1502 1506 1513 1517 1520 1524 1527 1530 1534 1539 1543 1547 1550 1552 1556 1558 1560 1561 1562 1563 1565 1565 1566
1421 1426 1430 1435 1440 1445 1450 1455 1460 1464 1467 1470 1474 1478 1482 1485 1489 1494 1496 1500 1503 1507 1512 1516 1519 1523 1525 1529 1534 1539 1543 1546 1549 1552 1555 1558 1559 1560 1561 1563 1566 1566 1566
1415 1420 1426 1432 1437 1442 1448 1452 1457 1462 1466 1470 1473 1477 1481 1485 1489 1493 1496 1499 1504 1508 1511 1515 1519 1523 1526 1529 1532 1539 1541 1546 1548 1551 1554 1558 1558 1559 1560 1561 1564 1565 1566
1408 1414 1420 1426 1431 1437 1442 1447 1452 1457 1462 1466 1471 1475 1479 1484 1488 1491 1495 1500 1504 1507 1511 1515 1518 1522 1526 1529 1531 1537 1543 1547 1549 1551 1554 1556 1558 1559 1559 1561 1564 1564 1566
1404 1408 1413 1419 1425 1432 1438 1443 1448 1453 1459 1465 1468 1472 1477 1482 1486 1490 1495 1499 1502 1506 1509 1513 1516 1517 1524 1527 1532 1536 1542 1546 1546 1549 1550 1553 1556 1557 1559 1559 1561 1562 1565
1399 1404 1408 1412 1417 1425 1432 1438 1444 1450 1455 1460 1465 1469 1474 1479 1483 1488 1492 1497 1500 1504 1508 1511 1514 1517 1521 1525 1528 1531 1533 1536 1540 1545 1547 1550 1554 1555 1557 1558 1557 1559 1562
1395 1398 1402 1407 1412 1418 1425 1431 1438 1443 1448 1453 1459 1466 1471 1476 1480 1485 1490 1494 1498 1503 1506 1509 1513 1516 1520 1522 1526 1528 1531 1532 1537 1542 1545 1548 1549 1553 1553 1553 1555 1557 1559
1391 1393 1398 1402 1408 1413 1420 1426 1433 1439 1445 1450 1455 1461 1467 1470 1477 1482 1487 1492 1495 1500 1504 1507 1511 1515 1520 1522 1525 1526 1530 1534 1534 1537 1541 1544 1546 1548 1549 1551 1553 1555 1557
1390 1390 1393 1397 1402 1409 1415 1422 1428 1433 1439 1444 1448 1454 1460 1466 1471 1477 1480 1487 1491 1495 1499 1504 1509 1512 1515 1520 1524 1526 1529 1533 1533 1534 1536 1540 1543 1544 1546 1549 1550 1552 1554
Wind_Speed
17 18 18 17 16 15 14 13 13 11 12 14 16 17 16 16 15 15 15 15 18 18 18 19 19 21 18 17 18 19 19 20 21 22 24 25 25 25 24 24 25 26 26
16 17 17 16 15 15 12 13 12 14 14 14 15 14 13 13 13 15 16 18 19 21 20 20 21 21 20 19 20 20 20 22 22 23 24 24 25 26 25 25 25 26 25
16 16 15 14 13 15 14 14 14 13 13 14 14 13 14 15 15 13 13 16 20 21 22 22 24 24 22 21 21 20 21 22 21 22 23 24 24 24 24 25 25 24 24
18 14 16 13 13 14 16 14 15 14 14 14 16 15 16 16 19 16 7 15 19 21 23 24 26 25 24 23 22 22 22 22 22 23 24 24 24 24 24 24 24 24 24
17 17 15 13 12 14 15 16 16 15 15 15 16 15 16 17 19 19 20 22 18 21 23 26 27 29 27 25 24 22 21 22 23 23 24 23 24 23 23 22 22 21 20
17 17 15 12 13 14 15 17 17 17 16 16 17 17 18 18 21 14 17 23 23 21 24 27 31 32 26 27 27 18 18 21 22 23 23 22 23 22 22 21 21 21 19
18 17 14 13 13 13 15 14 16 18 18 16 15 15 17 18 21 24 27 24 16 22 28 30 27 25 24 28 27 21 22 22 23 23 22 21 21 21 21 21 21 20 20
17 16 15 12 11 12 13 14 15 18 17 16 16 15 16 17 19 19 25 25 23 27 30 32 29 23 28 24 25 24 22 22 23 25 23 22 22 23 23 24 23 24 24
19 17 14 12 11 12 14 13 11 17 16 15 17 16 15 17 23 23 22 29 35 31 34 29 19 17 24 26 27 25 23 23 23 25 24 24 22 23 23 23 22 22 22
20 17 14 13 12 15 11 11 10 11 12 16 13 15 15 17 18 17 26 34 42 38 27 22 24 27 26 31 30 26 24 20 17 18 16 18 21 20 20 20 18 18 16
23 20 17 16 14 11 12 11 12 11 11 9 8 10 13 14 7 7 33 46 32 29 31 31 27 25 22 28 26 22 19 17 16 15 15 18 18 16 15 15 15 14 12
26 22 19 18 17 15 12 12 12 10 6 6 8 10 15 21 13 14 9 25 32 33 32 30 25 23 22 24 22 19 18 19 18 18 17 16 14 13 13 15 14 13 12
27 23 21 18 17 16 15 13 12 8 7 8 13 13 12 19 22 21 20 22 10 15 23 26 25 22 21 21 21 19 19 20 21 21 18 18 15 17 15 8 7 9 9
27 24 22 19 17 18 17 17 14 11 9 11 15 14 13 11 10 18 27 21 17 24 25 25 25 26 23 20 19 18 18 19 21 21 18 16 14 13 13 9 6 6 8
28 27 24 21 17 19 18 18 17 14 13 14 13 14 13 12 13 19 21 23 29 33 24 23 24 25 22 19 17 16 18 18 19 19 18 15 16 13 14 11 9 7 8
30 30 27 25 21 20 21 19 16 14 13 13 12 11 11 11 16 21 26 30 34 30 24 23 24 23 21 20 19 18 18 18 16 14 13 16 15 13 13 12 10 8 8
31 33 31 29 25 21 22 20 16 15 15 15 14 13 14 12 15 18 22 25 28 25 25 24 21 20 21 20 20 20 19 18 16 12 10 9 8 7 6 6 8 9 7
34 37 34 33 30 25 23 22 19 17 17 18 19 19 19 17 18 22 31 28 22 22 25 24 23 22 20 19 21 22 22 19 15 12 11 7 4 2 1 2 4 6 7
34 39 37 36 34 29 24 23 21 20 19 20 21 21 20 20 20 23 21 19 22 23 23 22 22 19 22 23 23 23 21 19 17 15 12 9 6 4 3 2 2 2 3
34 37 38 38 37 33 29 27 25 23 23 23 22 20 20 20 22 22 20 19 19 23 23 22 22 23 23 24 26 25 21 18 16 14 12 9 7 6 5 4 3 3 3
32 35 39 41 40 37 34 32 32 30 27 26 23 21 20 20 21 22 21 21 20 20 22 23 22 22 24 22 23 21 20 18 15 12 10 8 7 5 4 4 3 3 4
27 33 38 41 42 40 36 35 35 33 30 28 25 24 22 21 20 20 20 22 22 22 22 23 25 29 27 26 24 23 16 15 15 13 11 9 8 7 6 6 5 5 5
24 29 36 42 45 43 40 38 37 34 34 33 32 29 27 24 22 22 21 20 22 23 22 21 21 21 26 28 23 11 10 7 18 16 15 13 11 10 9 8 7 7 7
23 30 34 41 42 44 43 41 40 39 38 38 35 32 30 28 26 25 24 24 22 21 22 22 23 23 24 26 25 17 7 11 7 10 16 16 14 13 11 10 9 9 9
9 26 31 36 39 40 44 41 39 39 37 37 37 35 33 31 28 26 25 26 26 25 23 23 23 23 23 23 24 23 13 11 11 9 10 14 14 13 11 10 10 10 9
7 17 27 33 38 39 39 40 36 36 36 37 41 40 33 34 33 33 29 28 26 25 25 26 24 23 22 21 21 18 16 13 10 7 7 10 8 10 11 11 11 10 10
Wind_Direction
200 196 191 193 188 180 178 178 201 207 216 216 213 214 212 214 211 212 210 200 191 188 179 176 172 162 153 141 137 137 137 133 127 127 125 123 120 124 125 125 127 125 125
198 192 191 195 189 183 181 187 202 212 214 211 205 207 208 207 213 212 211 203 195 190 179 176 171 160 156 149 145 141 140 136 132 131 126 122 121 118 121 126 128 128 127
183 186 193 194 193 194 181 192 209 219 218 215 208 204 210 211 207 202 207 210 199 193 180 169 164 161 155 150 148 144 141 137 134 132 132 127 123 123 121 121 122 128 126
187 194 191 196 203 205 200 200 206 216 220 216 217 215 219 213 206 205 237 221 210 197 186 173 164 158 154 148 147 142 140 137 135 134 132 125 125 129 127 125 124 124 126
181 193 197 208 212 215 214 211 211 219 222 223 221 219 224 212 215 223 217 211 208 201 187 173 159 157 149 141 138 137 137 139 138 134 132 131 128 128 127 127 127 128 128
190 196 205 218 222 225 220 218 216 225 228 226 231 228 231 223 220 205 203 219 219 197 183 174 160 157 157 148 138 134 144 145 141 137 132 128 130 130 130 128 126 124 123
199 203 211 223 223 226 222 221 224 230 233 232 232 232 234 228 223 225 213 199 192 166 161 154 145 143 142 145 135 160 155 148 143 139 132 129 128 129 129 127 125 125 122
204 209 215 221 221 217 214 215 221 232 236 236 235 232 229 229 225 226 202 195 191 145 154 146 134 133 133 135 147 149 146 147 141 135 126 127 126 126 122 121 123 121 120
205 210 214 207 205 204 213 215 224 235 236 235 237 233 231 225 225 213 221 219 177 177 159 152 155 132 145 149 150 148 143 135 130 127 125 121 126 129 127 128 131 128 129
207 209 210 208 207 209 211 214 214 222 219 225 232 232 230 229 229 231 209 197 177 169 171 163 149 152 156 159 150 150 145 141 143 140 134 123 124 129 138 136 135 131 140
206 207 208 211 213 209 203 205 206 206 203 188 208 214 208 174 170 97 131 148 142 142 146 147 149 150 165 148 145 147 150 149 153 153 153 151 143 151 156 152 149 145 145
206 206 207 209 212 215 199 192 204 203 203 224 210 200 209 190 145 162 132 120 141 125 149 160 165 161 164 149 136 144 148 146 148 144 139 148 150 163 169 184 187 183 181
207 205 206 208 210 210 191 190 183 179 202 200 169 158 185 191 188 165 158 144 157 169 145 154 154 141 148 142 143 144 145 146 143 134 138 138 136 124 120 151 177 175 192
207 208 210 211 213 196 189 190 192 192 188 179 164 169 173 175 183 182 195 199 197 178 155 147 149 149 151 151 149 148 148 151 149 143 140 143 130 127 122 124 133 127 132
208 211 213 214 215 197 189 183 184 188 191 201 200 205 216 211 195 182 184 186 183 175 163 158 158 154 155 155 152 152 152 155 157 151 149 142 136 130 112 111 103 111 111
212 211 212 213 215 202 193 191 184 184 184 185 190 191 186 197 194 176 171 172 165 164 165 168 165 159 159 158 156 155 157 160 165 168 163 151 137 132 116 107 101 97 100
218 212 213 212 211 205 197 193 182 184 178 174 169 159 154 161 172 171 171 169 158 160 168 170 169 166 162 157 157 157 160 164 168 167 165 146 132 126 123 110 102 102 94
218 214 214 211 207 206 199 193 186 185 181 170 161 152 143 139 151 154 154 154 157 165 171 169 172 169 162 160 158 159 163 166 171 172 174 173 167 149 141 161 137 127 112
227 218 215 211 206 203 201 195 195 189 185 176 170 164 161 158 156 162 168 170 165 170 171 173 172 175 167 164 163 160 160 161 166 172 183 194 199 196 187 176 142 132 115
231 221 217 213 206 202 200 196 196 197 190 186 181 178 176 172 170 175 181 181 176 175 174 174 178 176 177 172 162 158 159 167 175 187 193 204 210 209 199 190 173 167 162
232 220 215 212 208 201 200 198 199 197 196 192 190 187 184 182 176 174 177 180 182 184 180 180 179 177 169 174 172 161 164 177 190 198 214 225 228 223 232 236 230 225 224
223 219 213 211 212 204 205 203 205 199 198 198 193 191 190 187 186 185 187 187 184 185 185 183 184 175 177 175 177 167 166 183 194 207 216 223 231 233 226 221 223 234 247
209 212 210 212 211 206 205 206 207 205 199 196 198 195 193 193 194 195 193 195 192 188 191 190 190 193 184 180 178 176 161 181 188 202 209 217 221 221 221 226 225 230 237
203 205 206 213 211 210 207 208 211 209 206 203 203 200 198 196 197 198 198 197 198 198 195 196 200 200 199 192 187 195 185 167 164 178 206 212 217 220 223 224 230 234 241
195 202 205 213 215 216 212 209 210 212 212 213 206 206 206 203 200 201 200 201 198 200 201 202 204 202 203 202 201 196 194 183 168 162 177 205 212 219 227 235 241 246 251
124 178 191 205 214 215 212 208 211 215 216 217 211 210 206 206 207 206 208 203 199 200 201 203 202 201 208 209 215 216 215 210 211 183 172 180 199 220 233 240 244 248 253